Location: Bremen
(53.0830°N, 8.8000°E)
Time: 18:11:06
(UTC+02:00)

X-37B - Pass Details

Date: 07 August 2021
Orbit: 381 x 393 km, 45.0° (Epoch: 29 August)

Event Time Altitude Azimuth Distance (km) Brightness Sun altitude
Exits shadow 04:33:16 15° 203° (SSW) 1,156 2.4 -10.2°
Maximum altitude 04:34:32 18° 173° (S) 1,021 2.4 -10.1°
Drops below altitude 10° 04:36:46 10° 127° (SE) 1,398 3.5 -9.8°
Sets 04:39:14 0° 108° (ESE) 2,252 4.9 -9.6°
